RH
66 69 70 70 73 79 79 75 74 71 64 59 59 60 63 59 55 51 44 41 37 29 23 21 21 30 30
66 68 73 76 83 85 81 80 72 70 64 65 68 68 61 55 51 46 43 40 32 26 25 25 27 30 27
67 70 75 82 87 89 87 78 74 73 71 75 70 65 57 52 51 47 40 35 32 29 24 26 24 27 26
69 76 84 87 90 92 83 81 78 78 78 71 65 61 55 51 46 41 36 28 24 24 26 23 25 27 27
81 86 90 89 89 84 88 85 78 78 73 70 62 57 52 51 43 34 28 24 22 21 21 22 24 28 28
90 90 88 86 87 94 82 82 84 76 72 64 58 55 52 43 34 27 24 23 22 22 22 24 25 30 30
88 88 88 89 88 82 85 86 79 71 64 59 55 50 43 34 28 24 23 24 24 25 25 26 26 29 23
91 85 80 81 90 90 89 80 69 63 58 55 51 43 35 30 24 24 25 26 26 27 26 25 24 22 22
89 86 93 96 92 88 76 67 62 58 55 52 44 37 32 28 26 26 27 28 29 27 25 23 23 23 22
93 96 94 92 81 75 67 62 58 55 53 45 39 37 32 29 28 29 29 30 28 26 24 23 23 24 24
90 93 86 79 73 67 62 58 55 52 47 43 40 36 34 33 30 31 32 31 28 26 23 23 23 26 26
85 83 79 74 67 65 60 57 53 49 45 42 38 36 35 34 34 36 35 31 33 28 26 23 24 27 33
81 79 78 72 68 63 58 55 51 47 44 41 40 39 39 38 39 36 32 29 29 26 25 25 27 32 33
82 81 74 70 65 60 57 53 50 47 45 45 43 41 41 40 39 34 32 34 27 28 29 29 35 39 40
83 77 72 69 64 60 56 54 50 48 48 47 44 42 40 39 35 34 32 30 29 28 29 30 36 40 42
81 75 72 68 63 61 57 53 51 51 50 47 44 40 38 35 34 33 30 29 29 32 35 35 35 43 47
78 74 73 68 63 62 58 57 56 52 50 46 42 41 37 35 31 32 30 30 31 33 37 41 42 44 45